Main page
METAR-TAF:

METAR-TAF

Airports :

Francisco de Orellana Airport

Puerto Francisco de Orellana, Ecuador

latitude: 00-27-46S, longitude: 076-59-12W, elevation: 254 m

Current weather observation

The report was made 5 hours and 33 minutes ago, at 22:00 UTC
Wind 4 kt from the North/Northeast
Temperature 25°C
Humidity 83%
Pressure 1012 hPa
Visibility: 8000 m
Broken clouds at a height of 2000 ft
Broken clouds at a height of 10000 ft
light rain

METAR: SECO 142200Z 03004KT 8000 -RA BKN020 BKN100 25/22 Q1012 RMK A2989

Time: 22:33 (03:33 UTC)


TAF: missing

Weather observations and forecasts of more than 4000 airports (METAR and TAF reports).

The available stations are represented by yellow and red dots on the map.

Hover mouse over dot to see the name of the station.

Then click to see weather observations and forecasts.

To change the map : click on the green buttons with a black cross to zoom in, on the green button with a dash to zoom out, or on the green arrows for adjacent maps.


METAR-TAF: